Location: Petruro
(41.0333°N, 14.7833°E)
Time: 14:31:55
(UTC+00:00)

Cosmos 1743 Rocket - Pass Details

Date: 20 June 2021
Orbit: 604 x 632 km, 82.6° (Epoch: 29 July)

Event Time Altitude Azimuth Distance (km) Brightness Sun altitude
Exits shadow 02:28:12 - 183° (S) 2,452 6.2 -9.8°
Reaches altitude 10° 02:29:24 10° 182° (S) 1,969 5.7 -9.6°
Maximum altitude 02:33:45 80° 96° (E) 635 3.7 -9.0°
Drops below altitude 10° 02:38:12 10° 10° (N) 2,003 7.0 -8.4°
Sets 02:40:27 0° 9° (N) 2,919 7.9 -8.1°
